Location: Kellogg
(38.0159°N, 90.0546°W)
Time: 06:50:53
(UTC+00:00)

Vanguard 1 Rocket - Pass Details

Date: 19 September 2024
Orbit: 650 x 4218 km, 34.3° (Epoch: 05 October)

Event Time Altitude Azimuth Distance (km) Brightness Sun altitude
Rises 05:26:01 0° 176° (S) 4,062 - -50.2°
Reaches altitude 10° 05:30:27 10° 150° (SSE) 3,665 - -50.3°
Maximum altitude 05:34:42 14° 123° (ESE) 3,929 - -50.5°
Drops below altitude 10° 05:40:04 10° 98° (E) 4,886 - -50.6°
Exits shadow 05:41:21 - 94° (E) 5,171 11.1 -50.6°
Sets 05:48:18 0° 78° (ENE) 6,820 11.9 -50.7°
